Graham, TX

1:58 PM CST on December 17, 2017 (GMT -0600)
Graham

Weather History for KRPH - March, 2014

Change the Weather History Date:

Sunday, March 16, 2014

  Actual Average (KMWL) Record (KMWL)
Temperature  
Mean Temperature 46 °F -  
Max Temperature 54 °F 64 °F 89 °F (2013)
Min Temperature 37 °F 43 °F 33 °F (2001)
Degree Days  
Heating Degree Days 20    
Moisture  
Dew Point 36 °F    
Average Humidity 70    
Maximum Humidity 94    
Minimum Humidity 56    
Precipitation  
Precipitation 0.00 in - - ()
Sea Level Pressure  
Sea Level Pressure 30.02 in    
Wind  
Wind Speed 15 mph (NNW)    
Max Wind Speed 30 mph    
Max Gust Speed 39 mph    
Visibility 10 miles    
Events      
Averages and records for this station are not official NWS values.
T = Trace of Precipitation, MM = Missing Value Source: NWS Daily Summary

Daily Weather History Graph

Daily Weather History Graph

Search for Another Location

Airport or City:

Trip Planner

Search our weather history database for the weather conditions in past years. The results will help you decide how hot, cold, wet, or windy it might be!

Date:

Astronomy

Mar. 16, 2014 Rise Set
Actual Time 7:43 AM CDT 7:42 PM CDT
Civil Twilight 7:18 AM CDT 8:07 PM CDT
Nautical Twilight 6:49 AM CDT 8:36 PM CDT
Astronomical Twilight 6:20 AM CDT 9:05 PM CDT
Moon 7:59 PM CDT (3/16) 7:28 AM CDT (3/16)
Length of Visible Light 12h 49m
Length of Day
11h 59m
Full, 100% of the Moon is Illuminated
Mar 16
Full
Mar 16
Full
Mar 23
Last Quarter
Mar 30
New
Apr 7
First Quarter

Hourly Weather History & Observations

Time (CDT) Temp. Windchill Dew Point Humidity Pressure Visibility Wind Dir Wind Speed Gust Speed Precip Events Conditions
12:15 AM 53.6 °F - 52.0 °F 94% 29.81 in 10.0 mi NNW 4.6 mph - N/A   Clear
12:35 AM 53.6 °F - 52.0 °F 94% 29.82 in 10.0 mi NNW 5.8 mph - N/A   Clear
1:15 AM 53.8 °F - 51.8 °F 93% 29.83 in 10.0 mi NW 6.9 mph - N/A   Scattered Clouds
1:35 AM 53.6 °F - 51.4 °F 92% 29.83 in 10.0 mi WNW 5.8 mph - N/A   Scattered Clouds
1:55 AM 53.6 °F - 51.4 °F 92% 29.83 in 10.0 mi WNW 4.6 mph - N/A   Mostly Cloudy
2:15 AM 54.1 °F - 51.8 °F 92% 29.84 in 10.0 mi NW 9.2 mph - N/A   Overcast
2:35 AM 54.0 °F - 51.8 °F 92% 29.84 in 10.0 mi NNW 10.4 mph - N/A   Mostly Cloudy
2:55 AM 54.1 °F - 50.9 °F 89% 29.86 in 10.0 mi NW 12.7 mph 18.4 mph N/A   Overcast
3:15 AM 54.5 °F - 50.0 °F 85% 29.86 in 10.0 mi NNW 16.1 mph 32.2 mph N/A   Mostly Cloudy
3:35 AM 52.9 °F - 45.9 °F 77% 29.87 in 10.0 mi NNW 20.7 mph 29.9 mph N/A   Scattered Clouds
3:55 AM 50.7 °F - 43.5 °F 76% 29.86 in 10.0 mi NNW 18.4 mph 28.8 mph N/A   Clear
4:15 AM 49.6 °F - 43.7 °F 80% 29.87 in 10.0 mi NNW 13.8 mph 24.2 mph N/A   Clear
4:35 AM 49.1 °F - 43.9 °F 82% 29.87 in 10.0 mi NNW 20.7 mph 26.5 mph N/A   Clear
4:55 AM 49.1 °F - 43.2 °F 80% 29.89 in 10.0 mi NNW 16.1 mph 27.6 mph N/A   Scattered Clouds
5:15 AM 48.6 °F - 39.6 °F 71% 29.89 in 10.0 mi NNW 18.4 mph 28.8 mph N/A   Mostly Cloudy
5:35 AM 48.2 °F - 37.8 °F 67% 29.90 in 10.0 mi NNW 19.6 mph 27.6 mph N/A   Overcast
5:55 AM 47.7 °F - 36.7 °F 66% 29.91 in 10.0 mi NNW 21.9 mph 29.9 mph N/A   Overcast
6:15 AM 47.1 °F - 34.7 °F 62% 29.94 in 10.0 mi NNW 17.3 mph 27.6 mph N/A   Mostly Cloudy
6:35 AM 46.2 °F 40.8 °F 35.6 °F 66% 29.96 in 10.0 mi NNW 11.5 mph 24.2 mph N/A   Scattered Clouds
6:55 AM 45.1 °F 39.1 °F 34.7 °F 67% 29.98 in 10.0 mi NW 12.7 mph 19.6 mph N/A   Clear
7:15 AM 44.1 °F 35.7 °F 32.0 °F 63% 29.98 in 10.0 mi NNW 20.7 mph 29.9 mph N/A   Clear
7:35 AM 43.7 °F 35.7 °F 32.2 °F 64% 29.99 in 10.0 mi NNW 18.4 mph 24.2 mph N/A   Clear
7:55 AM 42.4 °F 35.0 °F 32.9 °F 69% 29.99 in 10.0 mi NW 15.0 mph - N/A   Clear
8:15 AM 42.3 °F 33.8 °F 32.0 °F 67% 30.01 in 10.0 mi NNW 18.4 mph 32.2 mph N/A   Clear
8:35 AM 42.4 °F 33.1 °F 32.0 °F 67% 30.02 in 10.0 mi NNW 23.0 mph 33.4 mph N/A   Scattered Clouds
8:55 AM 41.9 °F 32.6 °F 32.0 °F 68% 30.04 in 10.0 mi NNW 21.9 mph 34.5 mph N/A   Scattered Clouds
9:15 AM 41.4 °F 30.9 °F 32.0 °F 69% 30.04 in 10.0 mi NNW 26.5 mph 33.4 mph N/A   Scattered Clouds
9:35 AM 41.7 °F 30.8 °F 32.2 °F 69% 30.04 in 10.0 mi NNW 29.9 mph 36.8 mph N/A   Scattered Clouds
9:55 AM 41.5 °F 31.0 °F 32.2 °F 69% 30.05 in 10.0 mi NW 27.6 mph 36.8 mph N/A   Scattered Clouds
10:15 AM 41.4 °F 30.9 °F 32.0 °F 69% 30.05 in 10.0 mi NNW 26.5 mph 35.7 mph N/A   Scattered Clouds
10:35 AM 41.2 °F 30.9 °F 32.0 °F 70% 30.07 in 10.0 mi NNW 25.3 mph 36.8 mph N/A   Scattered Clouds
10:55 AM 40.8 °F 30.0 °F 32.0 °F 71% 30.08 in 10.0 mi NNW 27.6 mph 35.7 mph N/A   Scattered Clouds
11:15 AM 41.2 °F 31.6 °F 32.0 °F 70% 30.09 in 10.0 mi NNW 21.9 mph 29.9 mph N/A   Mostly Cloudy
11:35 AM 41.2 °F 30.7 °F 32.0 °F 70% 30.10 in 10.0 mi NNW 26.5 mph 38.0 mph N/A   Mostly Cloudy
11:55 AM 41.2 °F 30.5 °F 32.4 °F 71% 30.11 in 10.0 mi NNW 27.6 mph 34.5 mph N/A   Scattered Clouds
12:15 PM 42.4 °F 33.8 °F 32.9 °F 69% 30.11 in 10.0 mi NNW 19.6 mph 39.1 mph N/A   Scattered Clouds
12:35 PM 44.1 °F 34.4 °F 33.4 °F 66% 30.11 in 10.0 mi North 27.6 mph 33.4 mph N/A   Mostly Cloudy
12:55 PM 44.6 °F 35.1 °F 33.1 °F 64% 30.11 in 10.0 mi NNW 27.6 mph 33.4 mph N/A   Mostly Cloudy
1:15 PM 45.7 °F 36.7 °F 33.4 °F 62% 30.10 in 10.0 mi NNW 26.5 mph 34.5 mph N/A   Mostly Cloudy
1:55 PM 46.4 °F 38.3 °F 33.6 °F 61% 30.09 in 10.0 mi NNW 23.0 mph 32.2 mph N/A   Mostly Cloudy
2:15 PM 46.2 °F 37.7 °F 33.3 °F 61% 30.08 in 10.0 mi NNW 25.3 mph 36.8 mph N/A   Mostly Cloudy
2:35 PM 46.0 °F 38.3 °F 34.5 °F 64% 30.08 in 10.0 mi NNW 20.7 mph 26.5 mph N/A   Mostly Cloudy
2:55 PM 46.4 °F 38.5 °F 34.0 °F 62% 30.07 in 10.0 mi NNW 21.9 mph 28.8 mph N/A   Scattered Clouds
3:15 PM 47.3 °F - 34.3 °F 61% 30.06 in 10.0 mi NNW 25.3 mph 28.8 mph N/A   Scattered Clouds
3:35 PM 47.3 °F - 33.8 °F 59% 30.06 in 10.0 mi NNW 19.6 mph 32.2 mph N/A   Scattered Clouds
3:55 PM 47.5 °F - 33.6 °F 59% 30.06 in 10.0 mi North 21.9 mph 31.1 mph N/A   Scattered Clouds
4:15 PM 47.7 °F - 33.6 °F 58% 30.05 in 10.0 mi NNW 25.3 mph 32.2 mph N/A   Scattered Clouds
4:35 PM 48.6 °F - 33.4 °F 56% 30.05 in 10.0 mi NNW 26.5 mph 32.2 mph N/A   Scattered Clouds
4:55 PM 47.8 °F - 33.6 °F 58% 30.06 in 10.0 mi North 19.6 mph 29.9 mph N/A   Scattered Clouds
5:15 PM 47.3 °F - 33.3 °F 58% 30.06 in 10.0 mi North 24.2 mph 28.8 mph N/A   Scattered Clouds
5:35 PM 46.4 °F 39.2 °F 32.9 °F 59% 30.06 in 10.0 mi NNW 18.4 mph 27.6 mph N/A   Scattered Clouds
5:55 PM 45.9 °F 37.4 °F 32.0 °F 58% 30.06 in 10.0 mi NNW 24.2 mph 33.4 mph N/A   Mostly Cloudy
6:15 PM 45.9 °F 38.0 °F 32.2 °F 59% 30.07 in 10.0 mi NNW 20.7 mph 27.6 mph N/A   Mostly Cloudy
6:35 PM 45.5 °F 38.1 °F 32.0 °F 59% 30.07 in 10.0 mi NNW 18.4 mph 27.6 mph N/A   Mostly Cloudy
6:55 PM 45.1 °F 36.9 °F 32.0 °F 60% 30.08 in 10.0 mi North 21.9 mph 32.2 mph N/A   Mostly Cloudy
7:15 PM 45.0 °F 37.6 °F 32.0 °F 60% 30.09 in 10.0 mi NNW 17.3 mph 28.8 mph N/A   Mostly Cloudy
7:35 PM 45.0 °F 37.4 °F 32.0 °F 60% 30.09 in 10.0 mi NNW 18.4 mph 24.2 mph N/A   Mostly Cloudy
7:55 PM 45.0 °F 37.4 °F 31.8 °F 60% 30.09 in 10.0 mi NNW 18.4 mph 26.5 mph N/A   Mostly Cloudy
8:15 PM 44.1 °F 37.4 °F 31.6 °F 62% 30.09 in 10.0 mi NNW 13.8 mph 23.0 mph N/A   Scattered Clouds
8:35 PM 43.2 °F 37.4 °F 31.8 °F 64% 30.10 in 10.0 mi NNW 10.4 mph 17.3 mph N/A   Clear
8:55 PM 42.1 °F 37.1 °F 32.0 °F 67% 30.10 in 10.0 mi NNW 8.1 mph - N/A   Clear
9:15 PM 41.2 °F 37.3 °F 32.0 °F 70% 30.11 in 10.0 mi NNW 5.8 mph - N/A   Clear
9:35 PM 40.1 °F 36.9 °F 31.8 °F 72% 30.11 in 10.0 mi NNW 4.6 mph - N/A   Clear
9:55 PM 39.2 °F - 31.8 °F 75% 30.11 in 10.0 mi Calm Calm - N/A   Clear
10:15 PM 39.4 °F - 32.0 °F 75% 30.11 in 10.0 mi Calm Calm - N/A   Clear
10:35 PM 39.2 °F 37.0 °F 31.6 °F 74% 30.11 in 10.0 mi NNW 3.5 mph - N/A   Clear
10:55 PM 39.0 °F 34.8 °F 31.5 °F 74% 30.11 in 10.0 mi NW 5.8 mph - N/A   Clear
11:15 PM 38.5 °F 34.1 °F 30.4 °F 73% 30.12 in 10.0 mi NNW 5.8 mph - N/A   Clear
11:35 PM 37.8 °F 33.3 °F 29.7 °F 73% 30.11 in 10.0 mi North 5.8 mph - N/A   Clear
11:55 PM 37.6 °F 33.1 °F 28.8 °F 70% 30.12 in 10.0 mi NW 5.8 mph - N/A   Clear